CW0172 Weather Reports


Display with metric or nautical units.
time (UTC)temp
F
wind
direction
speed
MPH
gust
MPH
rain 1hr
in
rain 24hr
in
rain mn
in
humidity
%
barometer
mb
20260505210046 78 230 1.0 12.0 0.00 0.00 0.00 32 1015.4
20260505204547 80 246 4.0 10.0 0.00 0.00 0.00 32 1015.4
20260505203044 80 159 2.0 18.0 0.00 0.00 0.00 33 1015.7
20260505201544 80 251 3.0 11.0 0.00 0.00 0.00 34 1015.7
20260505200042 80 74 3.0 14.0 0.00 0.00 0.00 33 1015.6
20260505194544 80 193 2.0 11.0 0.00 0.00 0.00 35 1015.7
20260505193045 80 157 4.0 14.0 0.00 0.00 0.00 35 1016.0
20260505191550 80 207 2.0 9.0 0.00 0.00 0.00 36 1016.1
20260505190036 80 186 3.0 11.0 0.00 0.00 0.00 37 1016.3
20260505184534 80 146 5.0 16.0 0.00 0.00 0.00 35 1016.4
20260505183032 80 246 4.0 11.0 0.00 0.00 0.00 32 1016.7
20260505181529 80 163 4.0 18.0 0.00 0.00 0.00 34 1016.8
20260505180041 79 222 2.0 9.0 0.00 0.00 0.00 40 1016.9
20260505174535 79 248 4.0 15.0 0.00 0.00 0.00 39 1017.1
20260505173022 78 103 2.0 8.0 0.00 0.00 0.00 43 1017.2
20260505171519 78 129 3.0 12.0 0.00 0.00 0.00 43 1017.4
20260505170025 77 211 2.0 9.0 0.00 0.00 0.00 44 1017.6
20260505164517 77 226 2.0 6.0 0.00 0.00 0.00 47 1017.8
20260505163011 77 251 2.0 7.0 0.00 0.00 0.00 47 1018.0
20260505161509 77 171 2.0 7.0 0.00 0.00 0.00 47 1018.2
20260505153100 74 162 1.0 8.0 0.00 0.00 0.00 54 1018.7
20260505151554 73 225 2.0 11.0 0.00 0.00 0.00 52 1018.9
20260505124519 62 248 2.0 7.0 0.00 0.01 0.00 66 1019.3
20260505123015 62 245 2.0 7.0 0.00 0.01 0.00 69 1018.8
20260505121513 60 348 1.0 5.0 0.00 0.01 0.00 69 1018.9
20260505120006 59 182 0.0 5.0 0.00 0.01 0.00 72 1019.0
20260505114503 58 151 0.0 5.0 0.00 0.01 0.00 74 1019.2
20260505113001 56 241 0.0 2.0 0.00 0.01 0.00 79 1019.1
20260505111609 55 207 0.0 2.0 0.00 0.01 0.00 82 1019.1
20260505101553 57 236 1.0 4.0 0.00 0.01 0.00 72 1019.3
20260505100052 56 303 0.0 4.0 0.00 0.01 0.00 71 1019.1
20260505094550 55 254 0.0 3.0 0.00 0.01 0.00 71 1019.1
20260505093048 55 265 0.0 3.0 0.00 0.01 0.00 71 1018.8
20260505091546 56 167 0.0 3.0 0.00 0.01 0.00 70 1018.3
20260505090053 56 50 0.0 3.0 0.00 0.01 0.00 70 1018.3
20260505084546 56 232 0.0 0.0 0.00 0.00 0.00 69 1018.2
20260505083059 56 210 1.0 4.0 0.00 0.01 0.00 68 1018.3
20260505081548 56 226 1.0 8.0 0.00 0.01 0.00 69 1018.3
20260505080043 55 196 0.0 2.0 0.00 0.01 0.00 70 1018.3
20260505074545 55 250 1.0 3.0 0.00 0.01 0.00 70 1018.3
20260505073042 55 192 0.0 2.0 0.00 0.01 0.00 70 1018.2
20260505071542 55 214 1.0 5.0 0.00 0.01 0.00 70 1018.2
20260505070047 55 220 0.0 2.0 0.00 0.01 0.00 69 1018.3
20260505064552 56 131 1.0 4.0 0.00 0.01 0.00 69 1018.4
20260505063035 56 222 0.0 4.0 0.00 0.01 0.00 68 1018.4
20260505061539 56 282 0.0 3.0 0.00 0.01 0.00 67 1018.6
20260505060032 57 244 0.0 3.0 0.00 0.01 0.00 66 1018.5
20260505054529 57 19 0.0 2.0 0.00 0.01 0.00 65 1018.6
20260505053027 57 229 1.0 5.0 0.00 0.01 0.00 63 1018.6
20260505051525 57 236 0.0 9.0 0.00 0.01 0.00 62 1018.7
20260505041527 58 161 0.0 3.0 0.00 0.01 0.00 57 1018.8
20260505040016 58 175 0.0 6.0 0.00 0.01 0.00 55 1018.9
20260505034515 59 216 0.0 5.0 0.00 0.01 0.01 54 1018.8
20260505033018 59 193 1.0 5.0 0.00 0.01 0.01 53 1019.0
20260505031513 60 120 1.0 8.0 0.00 0.01 0.01 52 1019.0
20260505030013 60 147 2.0 5.0 0.00 0.01 0.01 51 1019.2
20260505024532 60 309 1.0 4.0 0.00 0.01 0.01 50 1019.1
20260505023012 60 145 0.0 3.0 0.00 0.01 0.01 50 1019.3
20260505021511 60 94 0.0 3.0 0.00 0.01 0.01 50 1019.2
20260505020011 61 144 0.0 2.0 0.00 0.01 0.01 49 1019.2
20260505014510 61 186 0.0 5.0 0.00 0.01 0.01 49 1019.1
20260505013019 61 146 0.0 4.0 0.00 0.01 0.01 48 1019.0
20260505011510 61 88 0.0 3.0 0.00 0.01 0.01 48 1019.0
20260505010009 62 116 0.0 2.0 0.00 0.01 0.01 47 1018.7
20260505004510 63 153 0.0 2.0 0.00 0.01 0.01 46 1018.6
20260505003010 63 198 0.0 4.0 0.00 0.01 0.01 45 1018.5
20260505001507 64 125 1.0 7.0 0.00 0.01 0.01 44 1018.4
20260505000018 65 150 0.0 5.0 0.00 0.01 0.01 43 1018.1
20260504234507 65 181 1.0 5.0 0.00 0.01 0.01 43 1017.9
20260504233010 66 216 0.0 6.0 0.00 0.01 0.01 42 1017.7
20260504231520 67 244 2.0 6.0 0.00 0.01 0.01 41 1017.5
20260504230005 67 194 1.0 7.0 0.00 0.01 0.01 40 1017.4
20260504224503 69 294 1.0 4.0 0.00 0.01 0.01 38 1017.4
20260504223003 69 269 1.0 5.0 0.00 0.01 0.01 38 1017.4
20260504221501 70 268 2.0 7.0 0.00 0.01 0.01 38 1017.5
20260504220101 70 228 1.0 5.0 0.00 0.01 0.01 36 1017.6
20260504214559 70 184 2.0 6.0 0.00 0.01 0.01 36 1017.7
20260504213057 70 318 2.0 11.0 0.00 0.01 0.01 36 1017.9
20260504211558 70 210 2.0 7.0 0.00 0.01 0.01 37 1017.9